Regional Weather Roundup
Issued by NWS

Home | Current Version | Previous Version | Graphics & Text | Print | Product List | Glossary On
Versions: 1 2 3 4 5 6 7 8 9 10 11 12 13 14 15 16 17 18 19 20 21 22 23 24 25 26 27 28 29 30 31 32 33 34 35 36 37 38 39 40 41 42 43 44 45 46 47 48 49 50
000
ASUS45 KSLC 272010
RWRUT

UTAH REGIONAL WEATHER ROUNDUP
NATIONAL WEATHER SERVICE SALT LAKE CITY UT
200 PM MDT WED JUL 27 2016

UTZ001>011-023>025-272100-

NORTHERN UTAH

CITY           SKY/WX    TMP DP  RH WIND       PRES   REMARKS
BRIGHAM CITY     N/A     93  26   9 CALM      30.13F
HILL AFB       MOSUNNY   93  31  11 NE7       30.18F
LOGAN          SUNNY     93  33  12 VRB5      30.14F
OGDEN          SUNNY     96  30   9 VRB6      30.14F HX  90
PROVO AIRPORT  MOSUNNY   90  48  24 VRB5      30.15F
SALT LAKE CITY MOSUNNY   99  30   9 NW14      30.11F HX  93
VERNAL         SUNNY     91  39  16 SE3       30.17F
WENDOVER       SUNNY     95  34  11 E9        30.12F HX  90
HEBER CITY     SUNNY     93  27   9 CALM      30.20F

$$

UTZ012>022-026-027-272100-

SOUTHERN/CENTRAL UTAH

CITY           SKY/WX    TMP DP  RH WIND       PRES   REMARKS
BLANDING       SUNNY     92  44  18 S9        30.28F
BRYCE CANYON   MOSUNNY   89  20   8 W12G24    30.39F
CEDAR CITY     SUNNY     98  31   9 N6        30.19F HX  92
DELTA          SUNNY     95  30  10 SW3       30.14F
MILFORD        SUNNY     99  34  10 MISG      30.14F HX  93
MOAB/CYNLANDS  SUNNY     98  40  13 VRB3      30.09F HX  93
PRICE          SUNNY     94  35  12 SW12      30.21F
ST GEORGE      CLEAR    104  46  14 SW3       29.97F HX 100

$$

REGIONAL REPORTS     COLORADO/ARIZONA

CITY           SKY/WX    TMP DP  RH WIND       PRES   REMARKS
CRAIG, CO      SUNNY     93  25   8 W12G21    30.24F
GRAND JUNCTION SUNNY     95  41  15 W6        30.13F HX  91
RIFLE          SUNNY     93  37  14 NE7       30.18F
MONTROSE       SUNNY     92  40  16 NW10      30.23F
CORTEZ         MOSUNNY   92  40  16 VRB3      30.21F
PAGE, AZ       SUNNY    101  38  11 VRB6      30.07F HX  95
GRAND CANYON   MOSUNNY   93  24   8 NE9       30.31F
KINGMAN        SUNNY    105  50  15 SW15G23   30.02F HX 102
FLAGSTAFF      MOSUNNY   86  40  19 VRB3      30.32F

$$

REGIONAL REPORTS    NEVADA/IDAHO/WYOMING

CITY           SKY/WX    TMP DP  RH WIND       PRES   REMARKS
LAS VEGAS, NV  MOSUNNY  110  40   9 CALM      29.86F HX 104
ELY            SUNNY     93  22   7 SE6       30.26F
ELKO           SUNNY     96  18   6 SW12      30.16F
POCATELLO, ID  SUNNY     90  41  18 NW8       30.16F
BURLEY         SUNNY     87  48  25 CALM      30.11F
EVANSTON, WY   SUNNY     87  22   9 W21G33    30.34F
ROCK SPRINGS   SUNNY     88  15   6 NW10G21   30.29F
KEMMERER         N/A     84  18   8 W10G23    30.34F

$$



USA.gov is the U.S. government's official web portal to all federal, state and local government web resources and services.